Zurück zum Katalog

ONEWEB-0237

AktivKommunikationPO
NORAD 48770·PAYLOAD·🇬🇧 United Kingdom

Gestartet May 28, 2021 von Vostochny Cosmodrome

Loading…

Nächste Überflüge (nächste 24 Stunden)

TLE

AktuellSource: CelesTrak SupGP

Epoche: Sep 14, 2026, 11:11 UTC

1 48770C 21045D   26257.46646251 -.00000381  00000+0 -10129-2 0  2579
2 48770  87.8980 241.4008 0001707  85.1973  16.7080 13.15549413    14

Verfolge ONEWEB-0237 in Echtzeit mit AllMySat

Download on the App Store